Wind_Speed
1 1 2 2 2 2 2 2 2 2 2 2 2 2 2 2 3 3 4 4 4 4 4 4 4 5 5 5 6 6 6 6 6 6 5 6 6 6 6 7 7 7 7
1 1 1 1 2 2 2 2 2 2 2 2 2 2 2 2 2 3 3 4 4 4 4 4 4 5 5 5 6 6 7 7 7 6 6 6 6 7 7 7 7 7 8
1 1 1 1 1 1 2 2 2 2 2 2 2 2 2 2 2 3 3 4 4 3 4 4 4 5 5 6 6 7 7 8 8 7 7 7 7 7 7 8 8 8 9
1 1 2 1 1 1 2 2 2 2 2 2 2 2 2 2 3 3 3 4 3 3 4 4 4 5 5 6 7 7 8 8 8 8 8 8 8 8 8 9 9 8 9
1 1 2 1 1 2 2 2 2 2 3 2 2 2 2 2 3 3 3 4 4 4 5 6 5 5 5 6 6 7 8 8 9 9 9 8 8 8 8 9 9 9 9
1 1 2 2 2 2 2 2 2 3 3 3 2 2 3 2 2 3 4 4 4 4 5 6 5 5 6 6 6 7 8 8 9 9 9 9 9 9 9 9 10 10 10
1 2 2 2 3 3 3 3 3 3 3 3 2 2 3 3 3 3 4 4 4 4 5 5 6 6 6 6 6 7 8 9 9 9 9 9 9 10 10 9 9 10 10
2 2 2 2 3 3 3 3 3 4 3 3 3 3 3 4 4 3 4 4 5 5 5 5 5 6 6 6 6 7 7 8 9 10 10 10 10 10 10 10 10 10 10
2 2 2 2 3 3 4 3 3 4 4 3 3 4 4 4 4 4 4 5 5 5 5 5 6 6 6 6 7 7 7 8 9 10 10 10 10 11 11 11 11 11 11
2 3 3 3 3 4 4 3 3 4 4 4 4 4 4 4 4 4 4 4 6 6 6 6 6 6 6 7 7 8 7 8 9 9 10 10 11 12 12 12 12 12 12
3 3 4 3 4 4 3 3 4 4 4 4 5 5 5 4 5 5 5 5 6 6 6 6 6 6 7 7 7 8 8 8 8 9 9 10 11 11 12 13 13 13 13
3 4 4 4 4 4 3 3 4 4 4 4 4 4 5 5 5 5 5 5 6 6 6 6 7 6 7 7 8 8 9 10 10 10 10 11 11 11 12 12 12 13 12
4 4 4 4 4 3 3 3 3 3 3 3 3 4 4 5 5 5 5 5 5 6 6 6 6 6 6 7 8 9 9 10 10 11 11 11 11 12 12 13 13 13 12
4 4 4 4 4 3 4 3 3 4 4 3 3 3 4 4 4 4 5 4 4 4 5 5 5 5 6 6 8 9 9 9 10 10 11 11 12 12 12 12 12 13 12
3 3 4 4 4 3 3 3 3 4 4 4 3 3 4 4 3 3 4 4 4 4 5 5 5 5 5 6 7 8 8 8 9 9 10 11 11 11 11 11 11 12 12
3 2 3 3 4 3 3 3 3 3 3 3 3 3 3 3 3 3 3 3 4 4 4 4 4 5 6 5 6 7 7 8 9 10 10 10 10 10 10 10 10 11 12
3 3 3 3 3 3 3 4 3 3 3 3 3 2 2 2 2 2 2 3 3 3 3 3 3 4 5 5 6 7 7 8 8 8 9 9 10 10 10 9 10 11 11
3 3 3 3 3 4 4 4 4 4 4 3 3 3 2 2 2 2 2 2 2 2 3 3 3 3 4 4 5 5 6 7 6 7 8 9 9 9 9 10 10 11 11
4 4 4 4 4 4 4 5 4 4 4 4 3 2 3 2 2 3 2 2 1 2 2 2 3 3 3 3 3 4 5 4 4 6 7 8 9 9 10 10 11 11 11
4 4 4 4 4 4 4 4 4 4 4 4 3 2 2 2 2 3 1 1 2 1 1 2 2 3 3 2 2 3 4 3 4 5 6 7 8 8 9 10 10 10 10
4 5 5 5 5 5 4 4 4 4 5 5 4 3 3 3 2 2 1 1 1 1 1 2 2 3 3 2 3 3 2 3 3 3 5 5 6 7 8 8 9 9 9
5 5 5 5 5 5 5 5 5 4 4 5 5 4 4 4 3 2 2 2 1 1 2 1 2 3 3 3 2 3 2 3 4 4 4 5 5 6 6 6 7 7 7
5 5 5 5 5 5 6 5 5 5 4 5 5 5 5 5 4 3 3 2 2 2 2 3 3 3 3 3 3 3 3 3 4 4 4 5 5 5 5 6 6 6 7
6 6 6 5 5 5 5 4 5 5 5 5 5 5 5 5 4 3 3 3 3 3 3 3 3 3 3 3 3 4 4 4 4 5 4 5 5 5 6 6 6 7 8
6 6 6 5 5 5 5 4 4 5 4 5 4 4 4 4 4 4 4 4 4 3 3 3 4 4 4 3 3 4 4 5 5 5 5 6 6 6 7 7 7 8 9
6 6 5 5 5 5 5 5 5 5 5 5 4 4 4 4 5 4 4 4 4 4 4 4 4 4 4 4 4 4 5 5 5 6 6 6 6 7 7 8 9 9 10
Wind_Direction
99 126 147 158 162 161 157 146 149 143 141 131 139 142 155 161 176 176 178 174 175 179 183 189 196 198 196 193 195 198 194 191 188 189 195 195 193 190 194 197 193 187 187
176 168 185 201 192 188 190 187 189 175 178 174 151 136 160 167 172 185 190 184 184 190 191 195 202 205 205 205 207 209 207 205 205 202 203 203 199 198 201 202 194 195 190
227 213 203 203 205 209 210 205 202 201 200 196 190 162 163 172 174 187 197 191 194 200 202 204 206 208 210 214 216 218 218 217 212 210 211 212 208 203 204 204 200 202 198
248 228 213 203 209 218 220 212 219 216 217 208 205 191 178 177 186 191 198 196 199 209 215 207 207 211 214 219 219 222 223 222 216 214 217 216 216 212 211 213 213 213 206
253 234 231 227 229 231 238 228 222 221 219 216 223 219 204 187 201 209 205 206 209 214 224 223 221 220 221 222 222 222 224 223 217 216 218 218 219 221 219 217 218 219 216
272 264 250 244 243 250 251 239 233 232 228 221 223 229 225 207 212 219 224 222 223 225 227 227 230 232 228 229 232 228 226 222 217 216 217 219 221 224 224 223 221 222 227
279 287 265 257 248 261 255 249 253 244 235 227 228 232 235 229 222 218 224 224 229 235 238 235 236 236 233 230 231 229 228 223 219 218 219 223 225 227 229 230 230 228 232
275 281 265 257 255 256 254 254 251 241 240 232 228 231 233 236 236 229 224 226 233 239 242 245 242 239 234 229 228 228 226 224 224 224 226 228 229 231 232 234 235 234 233
279 266 269 269 264 259 256 254 249 237 234 232 234 237 242 245 244 240 235 235 238 240 239 243 242 237 236 235 232 232 229 229 230 230 230 233 235 235 236 238 238 238 236
284 272 270 280 280 276 266 253 245 241 241 242 244 247 250 250 247 249 247 237 234 238 233 238 239 234 239 240 237 236 235 231 231 232 232 235 237 237 240 240 241 244 241
282 281 275 281 290 281 264 257 253 245 242 246 250 255 258 251 250 249 245 240 234 236 233 234 235 236 243 244 240 237 236 234 233 234 237 237 238 239 240 241 242 243 244
272 280 284 278 280 275 267 261 259 251 240 248 251 255 256 250 252 251 248 243 242 242 241 239 236 238 244 244 241 236 236 238 238 237 240 241 240 241 242 243 243 245 248
282 279 279 274 271 269 266 267 260 268 263 263 264 260 256 252 252 254 251 242 240 241 238 240 243 246 248 247 242 241 242 243 242 241 242 243 244 244 245 246 246 249 252
290 280 274 275 274 267 264 270 268 273 275 273 279 271 268 262 254 250 243 229 229 235 234 235 242 249 251 252 252 251 250 246 245 243 241 244 246 246 247 248 248 251 252
300 283 275 272 274 276 274 265 264 273 275 280 284 280 270 265 250 238 237 230 233 245 249 245 248 252 255 254 256 255 252 248 245 242 240 241 245 244 244 245 250 252 251
317 308 295 278 268 275 280 269 260 265 273 279 285 286 269 264 250 241 235 237 246 259 257 261 264 264 259 258 260 256 252 250 245 240 241 243 250 247 244 246 253 256 254
314 312 303 289 274 274 276 274 277 268 271 275 293 290 284 260 247 256 259 249 254 263 270 269 263 273 265 262 259 254 249 243 237 239 242 244 247 248 248 251 255 257 259
312 311 302 290 283 275 271 271 270 272 268 268 284 289 276 258 250 250 258 256 250 256 263 269 266 279 278 273 265 249 245 238 234 238 242 245 248 249 250 252 256 258 261
306 303 298 289 289 279 272 268 263 268 268 264 272 275 269 267 262 262 261 259 278 270 264 274 277 280 293 288 263 248 250 250 244 242 244 249 253 252 252 254 257 259 262
298 296 294 291 285 277 272 267 270 266 260 254 255 252 260 266 264 267 264 251 256 287 286 289 293 296 298 289 260 256 247 239 250 252 252 255 256 257 256 257 260 262 264
297 298 294 289 280 270 261 261 267 261 252 246 250 246 251 261 265 265 286 285 280 298 324 311 321 320 318 297 274 266 247 250 257 261 260 260 259 258 257 260 262 262 260
294 291 288 285 277 272 265 260 256 265 257 245 245 251 254 257 255 264 280 274 278 291 319 311 307 315 323 321 294 272 266 262 260 262 259 255 260 256 263 270 266 264 266
292 291 288 287 273 269 273 263 250 258 263 254 250 252 252 250 251 261 269 267 266 281 301 311 302 309 307 311 310 293 291 293 273 274 269 261 260 260 270 267 266 268 272
285 287 290 286 274 271 273 260 251 254 258 256 256 253 248 245 246 254 258 262 270 271 284 299 310 305 305 304 299 295 294 298 299 299 293 283 277 275 277 273 275 277 279
283 282 285 281 274 275 270 255 255 253 253 254 253 249 244 240 244 252 255 259 266 270 280 289 302 303 294 290 289 289 292 292 295 297 294 288 286 283 282 285 285 284 285
280 277 279 278 277 276 271 260 263 255 251 249 248 244 242 243 246 249 253 256 261 268 279 288 293 294 292 288 285 286 294 294 294 296 298 294 290 287 287 288 288 287 288
Height
5885 5884 5884 5884 5884 5883 5883 5883 5883 5882 5882 5881 5881 5881 5881 5881 5881 5881 5881 5881 5881 5881 5882 5882 5882 5882 5882 5883 5883 5884 5885 5885 5886 5886 5887 5887 5887 5888 5888 5889 5889 5890 5890
5884 5884 5884 5883 5883 5883 5883 5883 5883 5882 5882 5881 5881 5881 5881 5881 5880 5880 5881 5881 5881 5881 5881 5881 5882 5882 5882 5883 5883 5884 5884 5885 5885 5886 5886 5887 5887 5888 5888 5888 5889 5889 5890
5884 5883 5883 5883 5883 5883 5883 5882 5882 5882 5882 5881 5881 5881 5880 5880 5880 5880 5880 5880 5880 5881 5881 5881 5881 5882 5882 5882 5883 5883 5883 5884 5885 5885 5886 5886 5887 5887 5888 5888 5888 5889 5889
5883 5883 5883 5882 5882 5882 5882 5882 5882 5882 5881 5881 5881 5881 5880 5880 5880 5880 5880 5880 5880 5880 5880 5880 5881 5881 5881 5881 5882 5882 5883 5883 5884 5884 5885 5886 5886 5886 5887 5887 5888 5888 5889
5883 5882 5882 5882 5882 5882 5881 5881 5881 5881 5881 5881 5880 5880 5880 5880 5880 5879 5879 5880 5880 5880 5880 5880 5880 5880 5880 5881 5881 5881 5882 5882 5883 5883 5884 5884 5885 5885 5886 5886 5887 5887 5888
5882 5882 5882 5881 5881 5881 5881 5881 5881 5881 5880 5880 5880 5880 5879 5879 5879 5879 5879 5879 5879 5879 5879 5879 5879 5879 5879 5880 5880 5880 5880 5881 5882 5882 5883 5884 5884 5884 5885 5885 5886 5886 5887
5882 5881 5881 5881 5880 5880 5880 5880 5880 5880 5880 5879 5879 5879 5879 5879 5879 5878 5878 5878 5878 5878 5878 5878 5878 5878 5879 5879 5879 5879 5879 5879 5880 5881 5882 5882 5883 5883 5884 5884 5884 5885 5885
5881 5881 5880 5880 5880 5879 5879 5879 5879 5879 5879 5879 5879 5878 5878 5878 5878 5878 5877 5877 5877 5877 5877 5877 5877 5877 5878 5878 5878 5878 5878 5878 5879 5880 5881 5881 5882 5882 5882 5883 5883 5883 5884
5881 5880 5880 5879 5879 5878 5878 5878 5878 5878 5878 5878 5878 5878 5877 5877 5877 5877 5876 5876 5876 5876 5876 5876 5876 5876 5876 5876 5877 5877 5877 5877 5878 5879 5879 5879 5880 5880 5881 5881 5882 5882 5882
5880 5880 5879 5879 5878 5878 5877 5877 5877 5877 5877 5877 5877 5877 5877 5876 5876 5875 5875 5875 5875 5875 5875 5875 5874 5874 5875 5875 5875 5876 5876 5876 5877 5877 5877 5878 5878 5879 5879 5880 5880 5880 5881
5879 5879 5878 5878 5877 5877 5877 5876 5877 5876 5876 5876 5876 5876 5875 5875 5875 5874 5874 5874 5874 5873 5873 5873 5873 5873 5873 5873 5874 5874 5875 5875 5875 5875 5876 5876 5876 5877 5877 5878 5878 5878 5879
5879 5878 5878 5877 5877 5876 5876 5876 5876 5876 5875 5875 5875 5875 5874 5874 5874 5873 5873 5873 5872 5872 5872 5872 5872 5872 5872 5872 5872 5872 5873 5873 5873 5873 5874 5874 5875 5875 5875 5876 5876 5876 5877
5878 5877 5877 5876 5876 5876 5875 5875 5875 5875 5875 5874 5874 5874 5873 5873 5872 5872 5872 5871 5871 5871 5871 5871 5871 5871 5871 5870 5870 5871 5871 5871 5871 5872 5872 5872 5873 5873 5873 5874 5874 5874 5875
5877 5876 5876 5875 5875 5875 5874 5874 5874 5874 5874 5873 5873 5873 5872 5872 5871 5871 5871 5870 5870 5870 5869 5870 5870 5870 5869 5869 5869 5869 5869 5869 5869 5869 5870 5870 5871 5871 5871 5872 5872 5872 5873
5876 5875 5875 5874 5874 5874 5874 5873 5873 5873 5873 5872 5872 5872 5871 5871 5870 5870 5870 5870 5869 5869 5868 5868 5868 5868 5868 5867 5867 5867 5867 5867 5867 5868 5868 5868 5868 5868 5869 5869 5870 5870 5870
5875 5874 5874 5874 5873 5873 5873 5873 5873 5872 5872 5872 5871 5871 5870 5870 5869 5869 5869 5869 5869 5868 5868 5867 5867 5867 5866 5866 5866 5865 5865 5865 5865 5866 5866 5866 5866 5866 5867 5867 5868 5868 5868
5874 5874 5873 5873 5873 5873 5872 5872 5872 5871 5871 5871 5871 5870 5870 5869 5869 5869 5869 5868 5868 5867 5867 5866 5866 5865 5865 5864 5864 5864 5863 5863 5864 5864 5864 5864 5865 5865 5865 5866 5866 5866 5866
5874 5873 5873 5873 5872 5872 5872 5871 5871 5871 5870 5870 5870 5870 5870 5869 5869 5869 5868 5868 5867 5867 5866 5866 5865 5865 5864 5863 5863 5862 5862 5862 5862 5862 5863 5863 5863 5863 5864 5864 5864 5864 5864
5873 5873 5872 5872 5872 5871 5871 5870 5870 5870 5870 5870 5869 5869 5869 5869 5869 5868 5868 5867 5867 5866 5866 5865 5864 5864 5863 5862 5862 5862 5861 5861 5861 5861 5861 5861 5861 5862 5862 5862 5862 5862 5862
5872 5872 5872 5871 5871 5870 5870 5870 5870 5869 5869 5869 5869 5869 5868 5868 5868 5868 5867 5867 5866 5866 5865 5865 5864 5863 5862 5862 5861 5861 5861 5861 5860 5860 5860 5860 5860 5860 5860 5860 5860 5860 5859
5871 5871 5871 5870 5870 5870 5869 5869 5869 5868 5868 5868 5868 5868 5868 5868 5867 5867 5867 5866 5866 5866 5865 5864 5864 5863 5862 5861 5861 5861 5860 5860 5860 5859 5859 5859 5859 5858 5858 5858 5858 5858 5857
5870 5870 5870 5869 5869 5869 5868 5868 5868 5868 5867 5867 5867 5867 5867 5867 5867 5866 5866 5866 5865 5865 5865 5864 5863 5863 5862 5861 5861 5860 5860 5860 5859 5858 5858 5858 5857 5857 5856 5856 5856 5855 5855
5870 5869 5869 5868 5868 5868 5867 5867 5867 5867 5866 5866 5866 5866 5866 5866 5866 5865 5865 5865 5865 5865 5864 5864 5863 5862 5862 5861 5860 5860 5859 5858 5858 5857 5857 5856 5856 5855 5855 5854 5854 5853 5853
5869 5868 5868 5867 5867 5867 5866 5866 5866 5866 5866 5865 5865 5865 5865 5865 5865 5865 5864 5864 5864 5864 5863 5863 5862 5862 5861 5861 5860 5859 5859 5858 5857 5857 5856 5855 5855 5854 5853 5853 5852 5852 5851
5867 5867 5866 5866 5866 5866 5865 5865 5865 5865 5864 5864 5864 5864 5864 5863 5863 5863 5863 5863 5863 5863 5863 5862 5862 5861 5861 5860 5860 5859 5858 5857 5856 5856 5855 5854 5854 5853 5852 5851 5851 5850 5849
5866 5865 5865 5865 5864 5864 5864 5863 5863 5863 5863 5863 5863 5863 5863 5862 5862 5862 5862 5862 5862 5862 5862 5862 5861 5860 5860 5859 5859 5858 5857 5857 5855 5855 5854 5853 5852 5851 5851 5850 5849 5848 5847